[[{"header":{"parameterUnit":"m.s-1","parameterCategory":2,"la1":30.2991,"la2":30.254,"lo1":-89.0895,"lo2":-89.0444,"dy":0.0017,"dx":0.0017,"nx":28,"ny":28,"refTime":"2024-06-12T03:00:00:Z","depth":"0","parameterNumber":2,"parameterNumberName":"U-component_of_CURRENTS"},"data":[0,0,0,0,0,0,0,0,0,0,0,0,0,0,0,0,0,0,0,0,0,0,0,0,0,0,0,0,0,0,0,0,0,0,0,0,0,0,0,0,0,0,0,0,0,0,0,0,0,0,0,0,0,0,0,0,0,0,0.2894,0.2895,0,0.297,0.2971,0.2972,0.3024,0.3024,0.3024,0.3024,0.3022,0.3022,0.3022,0,0,0,0,0,0,0,0,0,0,0,0,0,0.2801,0.2803,0.2894,0.2895,0.2895,0.2969,0.2971,0.2972,0.3024,0.3024,0.3024,0.3024,0.3022,0.3022,0.3022,0,0,0,0,0,0,0,0,0,0,0,0,0,0.2859,0.2804,0.2894,0.2927,0.2931,0.2969,0.2971,0.2973,0.3024,0.3024,0.3024,0.3024,0.3022,0.3022,0.3022,0.3019,0,0,0.3021,0.3021,0,0,0,0,0,0,0,0,0.2856,0.2863,0.2922,0.2925,0.2929,0.2984,0.2937,0.2983,0.3024,0.2993,0.3024,0.3024,0.3,0.3002,0.3022,0.3019,0.3019,0.3021,0.3021,0.3021,0.3021,0,0,0,0,0,0,0,0.2852,0.286,0.2928,0.2922,0.2927,0.2941,0.2949,0.2947,0.2996,0.2995,0.2998,0.3001,0.3002,0.3022,0.3022,0.3019,0.3021,0.3021,0.3021,0.3021,0.3016,0.3016,0,0,0,0,0,0,0.2835,0.2856,0.2925,0.293,0.2888,0.2942,0.2952,0.297,0.2998,0.3002,0.3001,0.3003,0.3022,0.3022,0.3022,0.3048,0.3021,0.3021,0.3021,0.3016,0.3016,0.3016,0,0,0,0,0,0,0.2833,0.2841,0.2922,0.2891,0.2902,0.2943,0.2963,0.2971,0.2992,0.3002,0.3006,0.3013,0.3022,0.3022,0.3033,0.3047,0.3021,0.3021,0.3016,0.3016,0.3016,0.3082,0,0,0,0,0,0,0.283,0.284,0.2852,0.289,0.2903,0.2951,0.2962,0.2972,0.2992,0.2995,0.3013,0.3014,0.3022,0.3033,0.3032,0.3046,0.3021,0.3016,0.3016,0.3016,0.308,0.3084,0.3088,0,0,0,0,0,0.2827,0.2839,0.2852,0.286,0.2916,0.2951,0.296,0.2991,0.2992,0.3009,0.3022,0.3013,0.3031,0.3034,0.3033,0.3047,0.3016,0.3016,0.3016,0.3078,0.3083,0.3088,0,0,0,0,0,0,0.2796,0.2846,0.2862,0.2886,0.2918,0.2958,0.2972,0.2988,0.3014,0.3014,0.3021,0.3023,0.3038,0.3024,0.3026,0.3041,0.3018,0.3018,0.3065,0.307,0.3074,0.3085,0.302,0,0,0,0,0,0.2795,0.2821,0.2865,0.2881,0.2898,0.2933,0.295,0.2973,0.2996,0.3009,0.3021,0.3025,0.3037,0.3039,0.3046,0.3053,0.3075,0.3056,0.306,0.3063,0.3069,0.3102,0.3111,0.3016,0.3016,0.3016,0,0,0.2776,0.2813,0.2821,0.2876,0.2902,0.2935,0.2945,0.2973,0.3003,0.3,0.3037,0.3041,0.3042,0.3064,0.3067,0.3055,0.3111,0.3063,0.3067,0.3071,0.3104,0.3113,0.3122,0.3016,0.3016,0.3016,0,0,0.2764,0.2796,0.282,0.2851,0.2898,0.2929,0.2935,0.2979,0.3007,0.3037,0.3047,0.306,0.3069,0.3088,0.3093,0.3113,0.3133,0.3105,0.3137,0.317,0.3179,0.3187,0.3276,0.3291,0.3106,0.3106,0.3106,0,0.2741,0.279,0.2828,0.2863,0.2889,0.2925,0.2956,0.2991,0.3033,0.3056,0.305,0.3086,0.3084,0.3122,0.3137,0.3125,0.3166,0.3126,0.3179,0.3187,0.3194,0.3282,0.3298,0.3109,0.3109,0.3108,0.3108,0,0.2765,0.2795,0.2808,0.2874,0.2906,0.2936,0.2989,0.3023,0.3049,0.3082,0.3123,0.3133,0.3151,0.3154,0.3157,0.3204,0.3229,0.3187,0.3176,0.3209,0.3299,0.3314,0.3114,0.3112,0.3111,0.3111,0,0,0.2729,0.2812,0.2812,0.285,0.2919,0.295,0.3001,0.3068,0.3107,0.3139,0.3184,0.321,0.3212,0.3217,0.3221,0.3252,0.3353,0.3248,0.3248,0.3353,0.3482,0.3528,0.355,0.3327,0.3329,0.333,0.3544,0,0.2738,0.2803,0.2843,0.2895,0.2938,0.2988,0.3034,0.3092,0.3142,0.3194,0.3215,0.3254,0.3238,0.3254,0.3283,0.333,0.3389,0.3302,0.3419,0.3423,0.3473,0.3566,0.3417,0.3596,0.3559,0.3562,0.3564,0,0.2759,0.2805,0.2859,0.2933,0.2954,0.2986,0.3078,0.3126,0.3202,0.3239,0.3279,0.3299,0.3361,0.3324,0.3444,0.3395,0.3448,0.3485,0.3493,0.3519,0.3496,0.3545,0.3626,0.3446,0.3587,0.3586,0.3584,0,0.2751,0.2816,0.2865,0.2889,0.2974,0.3005,0.3053,0.3134,0.3187,0.3272,0.3314,0.3375,0.342,0.3477,0.3561,0.351,0.3704,0.3633,0.3738,0.3744,0.3631,0.3623,0.3558,0.3723,0.3723,0.3722,0.3721,0,0.2768,0.2805,0.2861,0.2891,0.2946,0.3001,0.3065,0.313,0.3207,0.3264,0.333,0.3391,0.3458,0.3566,0.3614,0.3759,0.3753,0.3785,0.3804,0.3654,0.3647,0.3493,0.3443,0.373,0.3728,0.3727,0.3725,0,0.277,0.2804,0.2865,0.2933,0.2949,0.2993,0.3069,0.3113,0.3201,0.3279,0.3308,0.3438,0.3596,0.3701,0.3832,0.3851,0.3854,0.401,0.387,0.3868,0.3766,0.3727,0.3648,0.3547,0.4157,0.416,0.4162,0,0.2804,0.2825,0.2882,0.29,0.2931,0.2985,0.3015,0.3102,0.315,0.3301,0.3336,0.3524,0.3652,0.3917,0.4006,0.4167,0.3966,0.409,0.3945,0.378,0.375,0.3577,0.3483,0.3843,0.3842,0.3841,0.3841,0,0.285,0.2847,0.2877,0.2903,0.2931,0.2968,0.3018,0.3044,0.3141,0.3247,0.3388,0.3512,0.3782,0.3893,0.4117,0.416,0.3862,0.4086,0.3912,0.3521,0.3328,0.3231,0.3726,0.3835,0.3836,0.3836,0.3837,0.3837,0.2867,0.2878,0.288,0.2903,0.292,0.2925,0.2929,0.2993,0.3078,0.3186,0.3354,0.3524,0.3685,0.3998,0.4013,0.3904,0.3915,0.3748,0.3735,0.3589,0.3407,0.3945,0.4066,0.4068,0.4069,0.407,0.4072,0,0.2863,0.2856,0.288,0.2875,0.2858,0.2889,0.2906,0.289,0.2951,0.3122,0.3273,0.3459,0.3563,0.3631,0.3652,0.3536,0.3325,0.3399,0.3046,0.2987,0.3454,0.3349,0.3321,0.3321,0.3321,0.3321,0.3321,0.3321,0.2857,0.2844,0.2845,0.2805,0.2792,0.2736,0.2724,0.2732,0.2815,0.2927,0.3047,0.32,0.3312,0.3322,0.3163,0.3095,0.2805,0.2735,0.2716,0.2956,0.2982,0.3006,0.2887,0.2762,0.2761,0.2054,0.2049,0.2045]},{"header":{"parameterUnit":"m.s-1","parameterCategory":2,"la1":30.2991,"la2":30.254,"lo1":-89.0895,"lo2":-89.0444,"dy":0.0017,"dx":0.0017,"nx":28,"ny":28,"refTime":"2024-06-12T03:00:00:Z","depth":"0","parameterNumber":3,"parameterNumberName":"V-component_of_CURRENTS"},"data":[0,0,0,0,0,0,0,0,0,0,0,0,0,0,0,0,0,0,0,0,0,0,0,0,0,0,0,0,0,0,0,0,0,0,0,0,0,0,0,0,0,0,0,0,0,0,0,0,0,0,0,0,0,0,0,0,0,0,-0.0844,-0.0845,0,-0.1085,-0.1088,-0.1092,-0.1285,-0.1286,-0.1287,-0.1288,-0.1401,-0.1403,-0.1405,0,0,0,0,0,0,0,0,0,0,0,0,0,-0.0615,-0.0619,-0.0843,-0.0845,-0.0847,-0.1084,-0.1089,-0.1093,-0.1285,-0.1286,-0.1287,-0.1288,-0.14,-0.1403,-0.1406,0,0,0,0,0,0,0,0,0,0,0,0,0,-0.0781,-0.062,-0.0843,-0.0963,-0.0976,-0.1083,-0.1089,-0.1094,-0.1285,-0.1286,-0.1287,-0.1289,-0.14,-0.1403,-0.1406,-0.14,0,0,-0.1416,-0.1417,0,0,0,0,0,0,0,0,-0.0772,-0.0791,-0.0944,-0.0955,-0.0969,-0.1146,-0.1049,-0.1186,-0.1284,-0.1179,-0.1288,-0.1289,-0.1295,-0.1307,-0.1368,-0.1405,-0.141,-0.1416,-0.1418,-0.142,-0.1421,0,0,0,0,0,0,0,-0.076,-0.0782,-0.0951,-0.0945,-0.0961,-0.1027,-0.1053,-0.1078,-0.1233,-0.1189,-0.12,-0.1209,-0.1303,-0.1365,-0.1371,-0.1411,-0.1416,-0.1419,-0.1421,-0.1422,-0.1438,-0.1436,0,0,0,0,0,0,-0.0703,-0.0771,-0.0943,-0.0957,-0.0859,-0.1029,-0.1058,-0.1097,-0.1237,-0.1257,-0.1207,-0.1216,-0.1358,-0.1368,-0.1376,-0.1351,-0.142,-0.1423,-0.1425,-0.1439,-0.1437,-0.1436,0,0,0,0,0,0,-0.0698,-0.0717,-0.0933,-0.0858,-0.0889,-0.1029,-0.1073,-0.1101,-0.115,-0.125,-0.127,-0.1224,-0.136,-0.1371,-0.1395,-0.1357,-0.1424,-0.1427,-0.1441,-0.1439,-0.1437,-0.1315,0,0,0,0,0,0,-0.0691,-0.0715,-0.0724,-0.0855,-0.089,-0.0973,-0.1071,-0.1104,-0.1148,-0.1163,-0.1269,-0.1284,-0.1362,-0.139,-0.1398,-0.1363,-0.143,-0.1443,-0.144,-0.1437,-0.1321,-0.1309,-0.1298,0,0,0,0,0,-0.0682,-0.0687,-0.0724,-0.0744,-0.09,-0.097,-0.0995,-0.1107,-0.1146,-0.1159,-0.1238,-0.128,-0.1377,-0.1391,-0.1402,-0.1366,-0.1445,-0.1441,-0.1437,-0.1326,-0.1311,-0.1299,0,0,0,0,0,0,-0.0584,-0.0709,-0.0753,-0.0794,-0.0859,-0.0998,-0.1019,-0.1079,-0.1159,-0.1168,-0.1266,-0.1285,-0.1297,-0.1337,-0.1351,-0.1361,-0.1414,-0.1412,-0.1325,-0.1312,-0.1301,-0.1258,-0.1433,0,0,0,0,0,-0.0561,-0.0605,-0.0713,-0.0735,-0.0766,-0.0881,-0.0921,-0.099,-0.1071,-0.1111,-0.1176,-0.1239,-0.1293,-0.1305,-0.1361,-0.1352,-0.1366,-0.1333,-0.1322,-0.1312,-0.1283,-0.1298,-0.1285,-0.1424,-0.1424,-0.1424,0,0,-0.0518,-0.0594,-0.0613,-0.0716,-0.0785,-0.0814,-0.0913,-0.0957,-0.0971,-0.11,-0.1126,-0.1201,-0.1284,-0.1304,-0.1308,-0.1328,-0.1273,-0.1307,-0.1298,-0.1275,-0.1293,-0.1279,-0.1267,-0.1422,-0.1422,-0.1423,0,0,-0.0454,-0.0528,-0.0545,-0.0592,-0.0674,-0.0746,-0.0739,-0.085,-0.0895,-0.0922,-0.1027,-0.1071,-0.1134,-0.1202,-0.1241,-0.1184,-0.1221,-0.1192,-0.109,-0.1105,-0.1093,-0.1083,-0.1052,-0.104,-0.1176,-0.1176,-0.1176,0,-0.0399,-0.0446,-0.0548,-0.0569,-0.0592,-0.0697,-0.0696,-0.075,-0.0846,-0.086,-0.09,-0.1013,-0.1086,-0.1119,-0.1118,-0.1156,-0.1155,-0.1139,-0.1089,-0.1079,-0.1071,-0.1042,-0.1031,-0.117,-0.1171,-0.1171,-0.1172,0,-0.0364,-0.0383,-0.0386,-0.0458,-0.049,-0.0501,-0.0578,-0.0598,-0.0647,-0.0704,-0.0735,-0.0848,-0.0914,-0.0942,-0.1018,-0.0998,-0.1011,-0.1081,-0.112,-0.105,-0.1024,-0.1014,-0.1161,-0.1163,-0.1165,-0.1166,0,0,-0.0297,-0.0353,-0.0353,-0.0358,-0.0433,-0.0458,-0.0453,-0.0494,-0.0488,-0.0554,-0.0546,-0.0651,-0.0713,-0.0759,-0.0855,-0.0866,-0.0818,-0.0933,-0.0936,-0.0893,-0.0803,-0.0764,-0.0751,-0.0881,-0.088,-0.0878,-0.0796,0,-0.0242,-0.0235,-0.0287,-0.0259,-0.0263,-0.0332,-0.0325,-0.0364,-0.0402,-0.0413,-0.05,-0.0536,-0.0641,-0.0674,-0.07,-0.0807,-0.0791,-0.083,-0.0884,-0.0884,-0.0853,-0.0738,-0.0679,-0.0597,-0.0787,-0.0786,-0.0784,0,-0.0217,-0.0209,-0.017,-0.0176,-0.0185,-0.0176,-0.0189,-0.0196,-0.023,-0.0256,-0.0291,-0.0368,-0.0407,-0.0506,-0.0585,-0.0604,-0.0672,-0.0739,-0.0739,-0.0736,-0.0828,-0.0706,-0.0573,-0.076,-0.077,-0.0772,-0.0773,0,-0.0154,-0.0142,-0.0102,-0.0103,-0.0117,-0.0099,-0.0111,-0.014,-0.0126,-0.0145,-0.0124,-0.0205,-0.0224,-0.0326,-0.0459,-0.0519,-0.052,-0.0635,-0.0645,-0.0643,-0.0616,-0.0614,-0.0664,-0.0647,-0.0648,-0.0648,-0.0648,0,-0.0111,-0.0079,-0.0061,-0.0037,0.0015,-0.0025,0.0024,0.0001,0.0009,0.0059,-0.0034,0.0008,-0.0179,-0.0216,-0.0365,-0.0439,-0.0443,-0.0575,-0.0607,-0.0569,-0.0563,-0.0749,-0.0863,-0.0645,-0.0645,-0.0646,-0.0647,0,-0.0061,-0.0056,-0.0001,0.0032,0.0044,0.0081,0.0114,0.0152,0.015,0.0225,0.0236,0.0195,0.016,0.0002,-0.0141,-0.0287,-0.0459,-0.0421,-0.0332,-0.0355,-0.0568,-0.0676,-0.0691,-0.0753,-0.0416,-0.0414,-0.0413,0,-0.0047,-0.0005,0.0068,0.0098,0.0119,0.0172,0.021,0.022,0.0278,0.0353,0.0411,0.0418,0.0456,0.0294,0.0055,-0.0124,-0.034,-0.0228,-0.0349,-0.0514,-0.0661,-0.0738,-0.0796,-0.0255,-0.0252,-0.025,-0.0248,0,0.0003,0.004,0.0091,0.0177,0.0231,0.0304,0.0373,0.045,0.0494,0.0597,0.0734,0.0789,0.0667,0.053,0.0273,0.0107,-0.0325,-0.0191,-0.0399,-0.0536,-0.0584,-0.0681,-0.0359,-0.023,-0.0232,-0.0233,-0.0234,-0.0235,0.0043,0.0084,0.0157,0.0235,0.0314,0.0433,0.0521,0.0636,0.079,0.0984,0.1005,0.118,0.0917,0.0596,0.0329,-0.0131,-0.017,-0.0311,-0.0419,-0.0475,-0.0555,-0.0155,-0.0059,-0.006,-0.006,-0.0061,-0.0062,0,0.0071,0.0115,0.0195,0.0302,0.042,0.0453,0.0621,0.0745,0.0976,0.1218,0.1388,0.1453,0.1101,0.0678,0.0059,-0.031,-0.0469,-0.0527,-0.0659,-0.0707,-0.0374,-0.0393,-0.032,-0.032,-0.032,-0.032,-0.0319,-0.0319,0.0079,0.0149,0.0195,0.0372,0.0463,0.064,0.0755,0.0971,0.1185,0.1546,0.1765,0.1895,0.1586,0.0402,-0.0434,-0.0637,-0.0925,-0.0929,-0.1108,-0.0948,-0.0939,-0.093,-0.0977,-0.1028,-0.1029,-0.1383,-0.1386,-0.1389]}],[{"header":{"parameterUnit":"m.s-1","parameterCategory":2,"la1":30.2991,"la2":30.254,"lo1":-89.0895,"lo2":-89.0444,"dy":0.0017,"dx":0.0017,"nx":28,"ny":28,"refTime":"2024-06-12T03:00:00:Z","depth":"2","parameterNumber":2,"parameterNumberName":"U-component_of_CURRENTS"},"data":[0,0,0,0,0,0,0,0,0,0,0,0,0,0,0,0,0,0,0,0,0,0,0,0,0,0,0,0,0,0,0,0,0,0,0,0,0,0,0,0,0,0,0,0,0,0,0,0,0,0,0,0,0,0,0,0,0,0,0.2457,0.2458,0,0.2661,0.2665,0.2668,0.2896,0.2898,0.2899,0.2901,0.3023,0.3025,0.3026,0,0,0,0,0,0,0,0,0,0,0,0,0,0.2346,0.2348,0.2457,0.2458,0.2459,0.266,0.2665,0.2669,0.2895,0.2898,0.29,0.2902,0.3023,0.3025,0.3027,0,0,0,0,0,0,0,0,0,0,0,0,0,0.2472,0.2348,0.2457,0.2584,0.2596,0.266,0.2665,0.267,0.2895,0.2898,0.29,0.2903,0.3022,0.3025,0.3027,0.2987,0,0,0.3034,0.3035,0,0,0,0,0,0,0,0,0.2464,0.2478,0.2564,0.2575,0.2589,0.2741,0.267,0.2766,0.2894,0.2799,0.2901,0.2904,0.2908,0.292,0.2978,0.2992,0.2998,0.3034,0.3036,0.3037,0.3037,0,0,0,0,0,0,0,0.2455,0.247,0.2554,0.2565,0.2579,0.2658,0.268,0.2691,0.2847,0.2807,0.282,0.2816,0.2918,0.2975,0.2981,0.2999,0.3034,0.3036,0.3038,0.3039,0.3111,0.3111,0,0,0,0,0,0,0.2389,0.2461,0.2548,0.2559,0.2513,0.2656,0.2682,0.2703,0.2849,0.287,0.2813,0.2825,0.297,0.2978,0.2986,0.3078,0.3037,0.3039,0.304,0.311,0.3111,0.3112,0,0,0,0,0,0,0.2387,0.2396,0.2539,0.25,0.2522,0.2653,0.2676,0.2705,0.2793,0.2851,0.2875,0.2873,0.2972,0.2983,0.306,0.3079,0.304,0.3042,0.311,0.3111,0.3111,0.3176,0,0,0,0,0,0,0.2383,0.2395,0.24,0.2496,0.2521,0.2613,0.2673,0.2707,0.2776,0.2796,0.2908,0.2922,0.2975,0.3056,0.3062,0.3081,0.3044,0.3109,0.311,0.3111,0.3173,0.3179,0.3184,0,0,0,0,0,0.2379,0.2413,0.24,0.241,0.2521,0.2612,0.2637,0.2748,0.2776,0.2835,0.2918,0.292,0.3065,0.306,0.3066,0.3086,0.3109,0.311,0.3111,0.3171,0.3178,0.3183,0,0,0,0,0,0,0.2384,0.2438,0.2429,0.2477,0.2532,0.2646,0.2702,0.2745,0.2859,0.2872,0.2941,0.2962,0.3033,0.3037,0.3029,0.3106,0.3079,0.3081,0.3122,0.3128,0.3134,0.3121,0.3046,0,0,0,0,0,0.2363,0.2396,0.2448,0.2478,0.2507,0.2589,0.2636,0.2695,0.2787,0.2845,0.2932,0.299,0.3033,0.3068,0.3115,0.3151,0.3166,0.316,0.3166,0.317,0.3163,0.3202,0.3211,0.3116,0.3116,0.3115,0,0,0.2353,0.2393,0.2402,0.2477,0.2533,0.2605,0.2636,0.2708,0.278,0.2825,0.298,0.3014,0.3047,0.3123,0.3149,0.3137,0.3213,0.3172,0.3176,0.3165,0.3204,0.3214,0.3222,0.3116,0.3116,0.3116,0,0,0.2393,0.24,0.2457,0.2504,0.2565,0.2616,0.2629,0.2747,0.2825,0.2915,0.2975,0.3028,0.3112,0.3167,0.3184,0.3226,0.324,0.3227,0.3251,0.3291,0.3299,0.3307,0.3379,0.3392,0.3231,0.3231,0.3231,0,0.2377,0.245,0.2485,0.2562,0.2597,0.2621,0.2691,0.2765,0.29,0.2949,0.2967,0.3096,0.3129,0.3199,0.3233,0.3239,0.3275,0.3233,0.33,0.3307,0.3314,0.3385,0.3399,0.3235,0.3234,0.3234,0.3234,0,0.2463,0.2519,0.2562,0.2651,0.2705,0.2757,0.2826,0.2904,0.2952,0.3012,0.31,0.3155,0.3224,0.3237,0.3252,0.3312,0.3331,0.3306,0.3289,0.3328,0.34,0.3414,0.3239,0.3238,0.3237,0.3236,0,0,0.2417,0.2586,0.2593,0.2646,0.2743,0.2793,0.2896,0.2988,0.3036,0.3132,0.3211,0.3277,0.3283,0.3301,0.3321,0.3353,0.3446,0.3353,0.3354,0.3434,0.3571,0.3458,0.3462,0.3442,0.3443,0.3444,0.3619,0,0.2461,0.2614,0.2685,0.2793,0.2868,0.2916,0.3002,0.3076,0.3134,0.3224,0.3247,0.3316,0.3312,0.3332,0.3368,0.3424,0.3477,0.3403,0.3511,0.3515,0.3416,0.3471,0.3168,0.3285,0.3632,0.3634,0.3636,0,0.251,0.2608,0.2739,0.2862,0.2893,0.2953,0.3046,0.3124,0.3222,0.327,0.3327,0.3353,0.3432,0.3394,0.352,0.348,0.3529,0.3562,0.3569,0.344,0.3424,0.3292,0.3296,0.3658,0.3656,0.3654,0.3653,0,0.2464,0.263,0.273,0.2771,0.2921,0.2973,0.3034,0.3133,0.3198,0.3295,0.3333,0.342,0.3462,0.3532,0.3607,0.3577,0.3734,0.37,0.3655,0.365,0.3396,0.3364,0.3778,0.3778,0.3778,0.3777,0.3777,0,0.2479,0.2561,0.271,0.2758,0.2846,0.2943,0.3021,0.31,0.3196,0.3263,0.3337,0.3388,0.3493,0.3588,0.3647,0.3701,0.3778,0.3668,0.3678,0.3412,0.3381,0.3687,0.3674,0.3784,0.3782,0.3781,0.378,0,0.2451,0.2554,0.2661,0.2796,0.2841,0.2892,0.3023,0.3075,0.3162,0.3253,0.3287,0.3405,0.3505,0.3614,0.3744,0.3738,0.3808,0.381,0.3508,0.3475,0.3698,0.3686,0.3774,0.3771,0.3769,0.3767,0.3765,0,0.2515,0.2549,0.2655,0.2705,0.2775,0.2868,0.2936,0.3055,0.3113,0.325,0.3287,0.3403,0.3446,0.3598,0.3607,0.3693,0.379,0.3472,0.3321,0.3692,0.3694,0.3686,0.3678,0.3051,0.3043,0.3037,0.3032,0,0.2572,0.2549,0.2591,0.2673,0.2749,0.2828,0.2925,0.2964,0.3093,0.3139,0.3199,0.3233,0.3342,0.3242,0.3339,0.3351,0.3423,0.3348,0.3826,0.3074,0.3016,0.3016,0.3031,0.2979,0.2984,0.2988,0.2991,0.2993,0.2597,0.257,0.2568,0.2629,0.2704,0.2744,0.2756,0.2823,0.2854,0.2846,0.2982,0.2908,0.297,0.2891,0.2879,0.2894,0.3115,0.3007,0.3023,0.3047,0.2907,0.2844,0.2753,0.2757,0.276,0.2763,0.2766,0,0.2546,0.2512,0.2559,0.2577,0.2581,0.2672,0.2719,0.265,0.2596,0.2602,0.2562,0.2321,0.2267,0.2378,0.2298,0.2347,0.2312,0.2283,0.2201,0.2257,0.2305,0.2125,0.1766,0.1763,0.176,0.1757,0,0,0.254,0.2491,0.2457,0.2441,0.2468,0.2413,0.2406,0.2297,0.2236,0.2039,0.1954,0.2032,0.2217,0.189,0.1909,0.1818,0.2008,0.1754,0.2555,0.2505,0.2549,0.2726,0.2511,0,0,0,0,0]},{"header":{"parameterUnit":"m.s-1","parameterCategory":2,"la1":30.2991,"la2":30.254,"lo1":-89.0895,"lo2":-89.0444,"dy":0.0017,"dx":0.0017,"nx":28,"ny":28,"refTime":"2024-06-12T03:00:00:Z","depth":"2","parameterNumber":3,"parameterNumberName":"V-component_of_CURRENTS"},"data":[0,0,0,0,0,0,0,0,0,0,0,0,0,0,0,0,0,0,0,0,0,0,0,0,0,0,0,0,0,0,0,0,0,0,0,0,0,0,0,0,0,0,0,0,0,0,0,0,0,0,0,0,0,0,0,0,0,0,-0.0037,-0.0038,0,-0.0156,-0.0158,-0.016,-0.0288,-0.0289,-0.029,-0.0292,-0.0635,-0.0643,-0.0651,0,0,0,0,0,0,0,0,0,0,0,0,0,0.0045,0.0044,-0.0037,-0.0038,-0.0039,-0.0156,-0.0158,-0.0161,-0.0288,-0.0289,-0.0291,-0.0292,-0.0633,-0.0642,-0.0652,0,0,0,0,0,0,0,0,0,0,0,0,0,-0.0029,0.0043,-0.0037,-0.0112,-0.012,-0.0156,-0.0158,-0.0161,-0.0287,-0.0289,-0.0291,-0.0293,-0.063,-0.0641,-0.0653,-0.0688,0,0,-0.0689,-0.0695,0,0,0,0,0,0,0,0,-0.0025,-0.0033,-0.01,-0.0107,-0.0116,-0.0204,-0.0255,-0.0346,-0.0287,-0.023,-0.0292,-0.0294,-0.0507,-0.0529,-0.0552,-0.0704,-0.0719,-0.0691,-0.0698,-0.0703,-0.0706,0,0,0,0,0,0,0,-0.002,-0.0029,-0.009,-0.0101,-0.011,-0.0152,-0.0165,-0.0273,-0.0364,-0.0235,-0.0243,-0.0247,-0.0514,-0.054,-0.0562,-0.0724,-0.069,-0.0701,-0.0708,-0.0713,-0.0989,-0.0989,0,0,0,0,0,0,0.001,-0.0023,-0.0086,-0.0093,-0.0068,-0.0152,-0.0167,-0.0178,-0.0359,-0.0385,-0.0245,-0.0252,-0.0519,-0.0547,-0.0574,-0.0684,-0.0703,-0.0714,-0.0721,-0.0989,-0.0989,-0.0989,0,0,0,0,0,0,0.0012,0.0006,-0.0081,-0.0056,-0.007,-0.015,-0.0163,-0.018,-0.0229,-0.0363,-0.0395,-0.0279,-0.0521,-0.0558,-0.0707,-0.0696,-0.0719,-0.073,-0.0989,-0.0989,-0.0989,-0.0866,0,0,0,0,0,0,0.0015,0.0007,0.0015,-0.0054,-0.007,-0.0111,-0.0161,-0.018,-0.0224,-0.0236,-0.0403,-0.0435,-0.0526,-0.0688,-0.0718,-0.0713,-0.0739,-0.0989,-0.0989,-0.0989,-0.087,-0.0862,-0.0856,0,0,0,0,0,0.0018,0.0016,0.0016,0.0009,-0.0058,-0.011,-0.0123,-0.019,-0.0224,-0.0243,-0.0372,-0.0431,-0.071,-0.0699,-0.0734,-0.0732,-0.0988,-0.0989,-0.0989,-0.0873,-0.0864,-0.0856,0,0,0,0,0,0,0.004,0.0002,-0.0001,-0.0017,-0.0052,-0.013,-0.0154,-0.0191,-0.03,-0.0319,-0.046,-0.0502,-0.0627,-0.0698,-0.0682,-0.0811,-0.0848,-0.0856,-0.0748,-0.074,-0.0733,-0.0665,-0.0749,0,0,0,0,0,0.0062,0.0066,0.0012,0.0011,-0.0018,-0.008,-0.0107,-0.0141,-0.024,-0.0288,-0.0399,-0.0521,-0.0648,-0.0711,-0.0827,-0.0905,-0.0919,-0.0918,-0.0911,-0.0904,-0.0872,-0.0899,-0.0889,-0.0991,-0.0991,-0.0991,0,0,0.0072,0.006,0.0059,0.0021,-0.0022,-0.0052,-0.0106,-0.0141,-0.0157,-0.0312,-0.0394,-0.0518,-0.067,-0.0765,-0.0821,-0.0826,-0.0879,-0.0905,-0.0898,-0.0869,-0.0898,-0.0888,-0.0878,-0.0991,-0.0991,-0.0991,0,0,0.009,0.0076,0.0074,0.0045,0.001,-0.0023,-0.0033,-0.0107,-0.0144,-0.0219,-0.0347,-0.0455,-0.0624,-0.0719,-0.0796,-0.0815,-0.0856,-0.0854,-0.075,-0.0776,-0.0766,-0.0759,-0.0736,-0.0727,-0.083,-0.083,-0.083,0,0.0108,0.0114,0.0065,0.0048,0.0038,-0.0012,-0.0025,-0.0066,-0.0165,-0.0191,-0.0229,-0.0459,-0.0589,-0.0711,-0.0717,-0.0794,-0.0801,-0.077,-0.0761,-0.0754,-0.0748,-0.0727,-0.0719,-0.0824,-0.0825,-0.0825,-0.0826,0,0.0116,0.0124,0.0111,0.0092,0.0059,0.0057,-0.0004,-0.0021,-0.0055,-0.0097,-0.0201,-0.0357,-0.0485,-0.0539,-0.0643,-0.0677,-0.0692,-0.0761,-0.0769,-0.0729,-0.0711,-0.0704,-0.0816,-0.0818,-0.0819,-0.0821,0,0,0.0158,0.0132,0.0134,0.0148,0.0099,0.008,0.0057,0.0028,0.0025,-0.0049,-0.006,-0.0257,-0.0318,-0.0406,-0.0535,-0.0548,-0.0518,-0.0617,-0.0622,-0.0567,-0.0532,-0.0522,-0.0515,-0.0587,-0.0586,-0.0585,-0.0525,0,0.0197,0.0217,0.0176,0.0195,0.0194,0.015,0.0132,0.0097,0.0063,0.0041,-0.0068,-0.0158,-0.0277,-0.0333,-0.0369,-0.051,-0.05,-0.0525,-0.0602,-0.0603,-0.0578,-0.0507,-0.0491,-0.0435,-0.0519,-0.0518,-0.0517,0,0.0222,0.0248,0.027,0.0283,0.0269,0.0261,0.0256,0.0229,0.0175,0.0147,0.0076,-0.0016,-0.0098,-0.0178,-0.0309,-0.0321,-0.0398,-0.0468,-0.0469,-0.0493,-0.0582,-0.0499,-0.0421,-0.0507,-0.0507,-0.0508,-0.0509,0,0.0309,0.0318,0.0362,0.0359,0.0337,0.034,0.0323,0.0264,0.0258,0.0212,0.0237,0.0104,0.0073,-0.0051,-0.0202,-0.0256,-0.0288,-0.0396,-0.0438,-0.0437,-0.0452,-0.0455,-0.0425,-0.0425,-0.0426,-0.0426,-0.0426,0,0.038,0.0407,0.041,0.0434,0.0467,0.0407,0.0421,0.0391,0.0369,0.0394,0.0288,0.032,0.011,0.0056,-0.0112,-0.0227,-0.0222,-0.0378,-0.0415,-0.0408,-0.0408,-0.0512,-0.0522,-0.0424,-0.0424,-0.0424,-0.0425,0,0.0431,0.0441,0.049,0.0508,0.0501,0.0509,0.0486,0.0506,0.0483,0.0534,0.0539,0.0497,0.0426,0.0247,0.0073,-0.0084,-0.0224,-0.0261,-0.0207,-0.024,-0.0373,-0.0379,-0.0306,-0.0305,-0.0304,-0.0304,-0.0303,0,0.0437,0.0485,0.0546,0.0564,0.0562,0.0566,0.0573,0.0546,0.0585,0.0655,0.0717,0.0699,0.0704,0.0482,0.0189,-0.0049,-0.012,-0.0176,-0.0295,-0.0313,-0.0358,-0.0365,-0.0372,-0.0255,-0.0254,-0.0253,-0.0253,0,0.0467,0.0512,0.056,0.063,0.0649,0.0681,0.0713,0.0787,0.0803,0.0896,0.1037,0.1063,0.0851,0.0615,0.0284,0.0101,-0.0154,-0.0168,-0.0188,-0.0296,-0.0264,-0.0309,-0.0317,-0.0246,-0.0247,-0.0247,-0.0248,-0.0248,0.0466,0.0521,0.0619,0.0685,0.0725,0.0831,0.0906,0.1002,0.1134,0.1289,0.127,0.1286,0.0988,0.0551,0.0266,-0.0063,-0.0078,-0.0216,-0.022,-0.0224,-0.0236,-0.0206,-0.0176,-0.0176,-0.0176,-0.0177,-0.0177,0,0.0515,0.058,0.0655,0.076,0.0872,0.0863,0.1021,0.1144,0.1377,0.1424,0.1515,0.1238,0.097,0.062,0.0139,-0.0134,-0.0193,-0.0217,-0.024,-0.0244,-0.0247,-0.0264,-0.021,-0.0211,-0.0212,-0.0212,0,0,0.0522,0.0626,0.0707,0.0891,0.096,0.1123,0.1244,0.1431,0.1523,0.162,0.1557,0.1442,0.1032,0.0678,0.0314,0.0053,-0.0037,-0.0002,0.0055,0.0068,0.0067,-0.0215,-0.0239,0,0,0,0,0]}],[{"header":{"parameterUnit":"m.s-1","parameterCategory":2,"la1":30.2991,"la2":30.254,"lo1":-89.0895,"lo2":-89.0444,"dy":0.0017,"dx":0.0017,"nx":28,"ny":28,"refTime":"2024-06-12T03:00:00:Z","depth":"4","parameterNumber":2,"parameterNumberName":"U-component_of_CURRENTS"},"data":[0,0,0,0,0,0,0,0,0,0,0,0,0,0,0,0,0,0,0,0,0,0,0,0,0,0,0,0,0,0,0,0,0,0,0,0,0,0,0,0,0,0,0,0,0,0,0,0,0,0,0,0,0,0,0,0,0,0,0.1076,0.1077,0,0.1009,0.1007,0.1005,0.0984,0.0985,0.0986,0.0988,0.0992,0.0991,0.0989,0,0,0,0,0,0,0,0,0,0,0,0,0,0.1082,0.1082,0.1076,0.1077,0.1077,0.1009,0.1007,0.1005,0.0983,0.0985,0.0987,0.0988,0.0992,0.0991,0.0989,0,0,0,0,0,0,0,0,0,0,0,0,0,0.1042,0.1081,0.1076,0.1067,0.1067,0.1009,0.1007,0.1004,0.0983,0.0985,0.0987,0.0989,0.0993,0.0991,0.0989,0.0934,0,0,0.0983,0.0983,0,0,0,0,0,0,0,0,0.1044,0.104,0.1068,0.1068,0.1067,0.1018,0.1011,0.0989,0.0982,0.1001,0.0988,0.099,0.1014,0.101,0.0974,0.0934,0.0934,0.0983,0.0982,0.0981,0.0981,0,0,0,0,0,0,0,0.1047,0.1042,0.1037,0.1069,0.1068,0.1032,0.1028,0.1005,0.0988,0.1,0.1001,0.1013,0.1013,0.0975,0.0974,0.0934,0.0983,0.0982,0.0981,0.098,0.1299,0.1308,0,0,0,0,0,0,0.1083,0.1045,0.1039,0.1036,0.1075,0.1031,0.1026,0.1021,0.0987,0.0986,0.1011,0.1012,0.0978,0.0976,0.0975,0.1027,0.0981,0.098,0.0979,0.129,0.1301,0.1312,0,0,0,0,0,0,0.1083,0.1083,0.1042,0.105,0.1044,0.1031,0.1024,0.1019,0.102,0.0997,0.0996,0.1025,0.0979,0.0977,0.1026,0.1023,0.0979,0.0977,0.1278,0.1293,0.1307,0.1056,0,0,0,0,0,0,0.1083,0.1082,0.1088,0.1052,0.1046,0.1028,0.1023,0.1017,0.1028,0.1029,0.1007,0.1007,0.0981,0.1029,0.1024,0.102,0.0976,0.1266,0.1285,0.1302,0.1052,0.106,0.1067,0,0,0,0,0,0.1083,0.1057,0.1088,0.1089,0.1055,0.1029,0.102,0.1009,0.1027,0.1019,0.1049,0.101,0.1147,0.103,0.1023,0.1018,0.1257,0.128,0.1301,0.1049,0.1059,0.1067,0,0,0,0,0,0,0.1049,0.1053,0.1086,0.1063,0.1073,0.1031,0.102,0.1029,0.1034,0.1068,0.104,0.1041,0.1102,0.1163,0.1038,0.1217,0.1233,0.1254,0.1046,0.1055,0.1062,0.1148,0.0974,0,0,0,0,0,0.1055,0.1045,0.1059,0.1047,0.1058,0.1054,0.1047,0.1064,0.1069,0.1072,0.1067,0.1141,0.1181,0.1195,0.1252,0.1278,0.1341,0.1335,0.1342,0.1345,0.1444,0.1508,0.1521,0.1383,0.1383,0.1382,0,0,0.1055,0.1045,0.1051,0.1043,0.1046,0.107,0.1051,0.1068,0.1088,0.1076,0.1101,0.1134,0.1213,0.1252,0.1295,0.1287,0.1414,0.1372,0.1369,0.1471,0.153,0.1541,0.1551,0.1397,0.1395,0.1392,0,0,0.1005,0.1034,0.1008,0.103,0.1063,0.1088,0.1112,0.112,0.1119,0.1166,0.1184,0.1251,0.1298,0.1331,0.136,0.1484,0.145,0.153,0.1576,0.163,0.1636,0.1643,0.1639,0.1648,0.1522,0.1521,0.1521,0,0.1015,0.0991,0.0999,0.0991,0.1034,0.1111,0.1137,0.1142,0.1171,0.1196,0.12,0.1336,0.1354,0.1404,0.1465,0.1473,0.1496,0.1452,0.1613,0.1623,0.1634,0.163,0.1642,0.1512,0.1513,0.1514,0.1515,0,0.097,0.0969,0.0959,0.1006,0.104,0.1087,0.1143,0.1189,0.1245,0.1274,0.1354,0.1376,0.1484,0.1481,0.1488,0.1592,0.1571,0.1573,0.1512,0.1627,0.1622,0.1638,0.1498,0.1502,0.1505,0.1507,0,0,0.0964,0.094,0.0947,0.0965,0.1078,0.1096,0.1173,0.1255,0.1319,0.1367,0.1427,0.1497,0.1545,0.1608,0.1592,0.1643,0.1662,0.1649,0.1656,0.1514,0.1734,0.1623,0.163,0.1629,0.1634,0.1638,0.1652,0,0.0954,0.0931,0.0938,0.099,0.1017,0.1124,0.1183,0.128,0.1363,0.1444,0.1498,0.1583,0.157,0.1609,0.1651,0.1691,0.172,0.1659,0.1775,0.1781,0.1554,0.1654,0.1654,0.1665,0.1669,0.1672,0.1674,0,0.0931,0.0924,0.0951,0.099,0.1017,0.1082,0.125,0.1304,0.1451,0.1512,0.1618,0.1677,0.1776,0.1758,0.1851,0.1796,0.1812,0.1817,0.1815,0.1847,0.1708,0.1583,0.1705,0.1702,0.17,0.1698,0.1696,0,0.0929,0.0931,0.096,0.0992,0.1071,0.1114,0.1197,0.1351,0.1407,0.1588,0.169,0.178,0.1861,0.1907,0.1952,0.1909,0.2039,0.1959,0.1863,0.1849,0.203,0.2025,0.2076,0.2076,0.2075,0.2075,0.2075,0,0.0917,0.0923,0.0962,0.0981,0.105,0.1119,0.1214,0.1319,0.1475,0.1575,0.1732,0.1819,0.1922,0.1991,0.1994,0.1985,0.2069,0.1936,0.1882,0.1924,0.1909,0.2032,0.2027,0.2076,0.2076,0.2076,0.2076,0,0.087,0.09,0.0918,0.0999,0.1032,0.1091,0.1201,0.1261,0.1458,0.1598,0.1676,0.1879,0.1981,0.2036,0.2114,0.2037,0.2042,0.2019,0.2059,0.1996,0.1788,0.1773,0.1897,0.1894,0.1891,0.1889,0.1887,0,0.0797,0.0819,0.0922,0.0942,0.0969,0.1049,0.1096,0.125,0.1314,0.1604,0.1656,0.1862,0.1966,0.1972,0.2046,0.2035,0.2016,0.1982,0.1924,0.1854,0.1788,0.1776,0.1765,0.1883,0.1883,0.1882,0.1881,0,0.0694,0.0781,0.0829,0.0874,0.0912,0.0955,0.1034,0.1074,0.1268,0.1446,0.1614,0.1725,0.1842,0.1896,0.1929,0.1912,0.1984,0.1954,0.1958,0.1903,0.1838,0.1773,0.1765,0.1873,0.1874,0.1875,0.1875,0,0.0641,0.0663,0.0751,0.078,0.0828,0.0858,0.0909,0.0982,0.108,0.1385,0.1417,0.1652,0.1806,0.1835,0.1854,0.1852,0.1808,0.1719,0.1734,0.1744,0.1697,0.1592,0.1554,0,0,0,0,0,0.0581,0.0598,0.0618,0.0671,0.0721,0.0758,0.0858,0.0919,0.1092,0.1159,0.1294,0.1406,0.1536,0.1643,0.1609,0.1772,0.1796,0.1723,0.1694,0.1824,0.1834,0.1797,0,0,0,0,0,0,0.0541,0.0583,0.0593,0.0572,0.0586,0.0637,0.0703,0.0833,0.087,0.1068,0.1133,0.1302,0.1425,0.1537,0.158,0.1607,0.1552,0.1843,0.1839,0.1819,0.1828,0.1836,0.18,0,0,0,0,0]},{"header":{"parameterUnit":"m.s-1","parameterCategory":2,"la1":30.2991,"la2":30.254,"lo1":-89.0895,"lo2":-89.0444,"dy":0.0017,"dx":0.0017,"nx":28,"ny":28,"refTime":"2024-06-12T03:00:00:Z","depth":"4","parameterNumber":3,"parameterNumberName":"V-component_of_CURRENTS"},"data":[0,0,0,0,0,0,0,0,0,0,0,0,0,0,0,0,0,0,0,0,0,0,0,0,0,0,0,0,0,0,0,0,0,0,0,0,0,0,0,0,0,0,0,0,0,0,0,0,0,0,0,0,0,0,0,0,0,0,0.0325,0.0325,0,0.0381,0.0382,0.0384,0.0459,0.0459,0.046,0.046,0.0535,0.0536,0.0538,0,0,0,0,0,0,0,0,0,0,0,0,0,0.0277,0.0278,0.0325,0.0325,0.0325,0.0381,0.0382,0.0384,0.0459,0.0459,0.046,0.0461,0.0534,0.0536,0.0538,0,0,0,0,0,0,0,0,0,0,0,0,0,0.0319,0.0279,0.0325,0.0364,0.0367,0.0381,0.0383,0.0384,0.0458,0.0459,0.046,0.0461,0.0534,0.0536,0.0538,0.0535,0,0,0.0545,0.0546,0,0,0,0,0,0,0,0,0.0317,0.0322,0.0358,0.0361,0.0365,0.0407,0.0392,0.0433,0.0458,0.0432,0.046,0.0461,0.0488,0.0494,0.0514,0.0539,0.0542,0.0545,0.0546,0.0547,0.0548,0,0,0,0,0,0,0,0.0314,0.032,0.0355,0.0358,0.0362,0.0375,0.0383,0.0401,0.0461,0.0434,0.0438,0.0432,0.0491,0.0511,0.0516,0.0543,0.0545,0.0547,0.0548,0.0549,0.0646,0.0647,0,0,0,0,0,0,0.0291,0.0317,0.0353,0.0356,0.0334,0.0375,0.0384,0.0399,0.0461,0.0468,0.0431,0.0435,0.0507,0.0513,0.0519,0.0558,0.0547,0.0549,0.0551,0.0644,0.0646,0.0647,0,0,0,0,0,0,0.029,0.0295,0.0351,0.033,0.0338,0.0374,0.0391,0.0399,0.0427,0.0456,0.0466,0.0449,0.0508,0.0515,0.0563,0.056,0.055,0.0552,0.0643,0.0645,0.0647,0.0612,0,0,0,0,0,0,0.0289,0.0295,0.0317,0.033,0.0338,0.0369,0.0389,0.04,0.0418,0.0424,0.0475,0.0483,0.0509,0.056,0.0566,0.0563,0.0554,0.0641,0.0644,0.0646,0.0612,0.0613,0.0614,0,0,0,0,0,0.0287,0.0315,0.0318,0.0322,0.0361,0.0369,0.0376,0.0409,0.0417,0.0437,0.0481,0.0482,0.0579,0.0563,0.0569,0.0567,0.064,0.0643,0.0646,0.0612,0.0613,0.0614,0,0,0,0,0,0,0.0304,0.0325,0.0329,0.0361,0.0363,0.0379,0.0406,0.0407,0.0455,0.0464,0.0498,0.051,0.0549,0.057,0.0552,0.0606,0.0608,0.0613,0.058,0.0582,0.0582,0.0597,0.0556,0,0,0,0,0,0.0312,0.0346,0.0345,0.037,0.0375,0.0386,0.0398,0.0402,0.0431,0.0454,0.0493,0.0533,0.0563,0.0582,0.0618,0.0643,0.0616,0.0649,0.065,0.065,0.0669,0.0613,0.0608,0.0656,0.0656,0.0656,0,0,0.031,0.0337,0.0347,0.0376,0.039,0.0404,0.04,0.0409,0.0426,0.0451,0.0517,0.0536,0.0573,0.0611,0.0629,0.0628,0.0618,0.0653,0.0653,0.0673,0.0615,0.0609,0.0605,0.0658,0.0658,0.0658,0,0,0.0336,0.0361,0.0397,0.0411,0.0423,0.042,0.0417,0.0433,0.0456,0.0495,0.0518,0.0544,0.0603,0.0625,0.0641,0.0667,0.0624,0.0673,0.0684,0.0628,0.0622,0.0617,0.0546,0.0535,0.0671,0.0671,0.0671,0,0.0338,0.039,0.0402,0.0444,0.0459,0.0427,0.0449,0.046,0.049,0.0509,0.052,0.0585,0.0612,0.0634,0.0659,0.0665,0.0621,0.0668,0.0623,0.0618,0.0614,0.0542,0.053,0.067,0.067,0.067,0.067,0,0.0384,0.0432,0.0454,0.05,0.0511,0.0522,0.0518,0.0532,0.0539,0.0548,0.0579,0.0604,0.0643,0.0643,0.0668,0.0652,0.0624,0.0622,0.0608,0.0606,0.0532,0.052,0.0668,0.0669,0.0669,0.0669,0,0,0.038,0.0469,0.0483,0.0515,0.0542,0.0546,0.0571,0.0581,0.0596,0.0607,0.0628,0.0669,0.066,0.068,0.0678,0.0641,0.0563,0.0626,0.0623,0.0533,0.0415,0.0387,0.0371,0.0537,0.0535,0.0534,0.0363,0,0.0415,0.0508,0.0538,0.0591,0.0627,0.062,0.0654,0.0654,0.0654,0.0667,0.0647,0.0675,0.0674,0.0682,0.0641,0.0595,0.0537,0.061,0.0453,0.0449,0.0405,0.0359,0.053,0.0354,0.0351,0.0349,0.0347,0,0.0462,0.052,0.0598,0.0657,0.0671,0.0696,0.0719,0.0742,0.0738,0.0742,0.0726,0.0705,0.0672,0.0663,0.0543,0.0582,0.0509,0.0454,0.0445,0.0433,0.0401,0.0368,0.0326,0.0327,0.0329,0.0331,0.0332,0,0.0475,0.056,0.0626,0.065,0.0706,0.074,0.0763,0.078,0.0811,0.0785,0.0786,0.0718,0.0693,0.0587,0.0486,0.0506,0.0325,0.033,0.0223,0.0218,0.0308,0.0316,0.0229,0.0229,0.023,0.023,0.0231,0,0.0518,0.0569,0.0643,0.0682,0.0746,0.0779,0.0837,0.0847,0.087,0.0893,0.0832,0.0805,0.0675,0.0559,0.0459,0.0295,0.0291,0.0216,0.0173,0.0296,0.0305,0.0296,0.0306,0.0224,0.0225,0.0227,0.0228,0,0.0543,0.0595,0.0669,0.0742,0.0767,0.0822,0.0906,0.094,0.0954,0.0968,0.0963,0.0862,0.0702,0.0544,0.0355,0.0267,0.0113,0.0055,0.0175,0.0143,0.0046,0.0056,-0.009,-0.0092,-0.0094,-0.0096,-0.0098,0,0.0577,0.0624,0.0713,0.076,0.0806,0.0886,0.0944,0.0989,0.1021,0.0997,0.0995,0.0852,0.0757,0.0446,0.0291,0.0041,0.0029,-0.0064,0.0021,0.004,0.0013,0.0027,0.004,-0.0101,-0.0101,-0.0102,-0.0102,0,0.0627,0.066,0.0709,0.0809,0.0883,0.0955,0.1034,0.1051,0.1082,0.1092,0.1,0.0845,0.0648,0.0425,0.0219,0.0059,-0.0009,-0.0085,-0.0081,-0.0001,0.0025,0.0003,0.0019,-0.0109,-0.0108,-0.0108,-0.0107,0,0.0658,0.0697,0.0763,0.0838,0.093,0.0991,0.1029,0.1049,0.1078,0.1048,0.1006,0.0813,0.0707,0.0431,0.0249,0.0072,0.0051,0.0018,0.0017,0.0023,0.0123,0.0177,0.004,0,0,0,0,0,0.0681,0.0709,0.0788,0.087,0.0958,0.1011,0.107,0.1095,0.1104,0.1046,0.1033,0.0851,0.0569,0.0445,0.0261,0.0215,0.0018,-0.0005,-0.002,-0.0148,-0.014,-0.0042,0,0,0,0,0,0,0.0692,0.0757,0.0778,0.0872,0.0934,0.1037,0.1068,0.1078,0.104,0.1021,0.0866,0.0822,0.054,0.0678,0.0265,0.0212,0.0179,-0.0125,-0.0129,-0.0153,-0.0146,-0.0139,-0.0036,0,0,0,0,0]}]]